When you browse on this site, cookies collect data to enhance your experience and personalize the content and advertising you see.
Visit our Privacy Policy to learn more. By continuing to use the site, you agree to this use of cookies and data.
  • In Austria
  • List of Countries
  • For 7 days
  • Water Temperature
  • Satellite Maps
  • Weather Map
  • News
  • Weather Widgets
  • user-avatar
    Login

    Hourly Weather Klagenfurt

    Today, 18 January, Friday

    Time Temperature Precipitation Wind Pressure Humidity
    00:00 +4°C° 1.6 mm 1 mps 683 mmHg 95%
    01:00 +4°C° 1.6 mm 1 mps 683 mmHg 96%
    02:00 +3°C° 3.5 mm 1 mps 683 mmHg 94%
    03:00 +2°C° 3.5 mm 2 mps 683 mmHg 93%
    04:00 +1°C° 3.5 mm 2 mps 683 mmHg 92%
    05:00 -1°C° 2.7 mm 2 mps 683 mmHg 92%
    06:00 -2°C° 2.7 mm 2 mps 684 mmHg 93%
    07:00 -3°C° 2.7 mm 2 mps 684 mmHg 93%
    08:00 0°C° 1.8 mm 1 mps 685 mmHg 93%
    09:00 0°C° 1.8 mm 1 mps 685 mmHg 93%
    10:00 0°C° 1.8 mm 1 mps 686 mmHg 93%
    11:00 0°C° 0.5 mm 1 mps 687 mmHg 89%
    12:00 0°C° 0.5 mm 1 mps 687 mmHg 86%
    13:00 +1°C° 0.5 mm 1 mps 688 mmHg 82%
    14:00 0°C° 0.1 mm 1 mps 688 mmHg 83%
    15:00 0°C° 0.1 mm 1 mps 688 mmHg 84%
    16:00 0°C° 0.1 mm 1 mps 688 mmHg 84%
    17:00 -1°C° 0.1 mm 1 mps 689 mmHg 86%
    18:00 -2°C° 0.1 mm 1 mps 689 mmHg 87%
    19:00 -2°C° 0.1 mm 1 mps 689 mmHg 89%
    20:00 -3°C° 0.1 mm 1 mps 689 mmHg 90%
    21:00 -4°C° 0.1 mm 0 mps 690 mmHg 92%
    22:00 -4°C° 0.1 mm 0 mps 690 mmHg 93%
    23:00 -5°C° 0.1 mm 0 mps 690 mmHg 93%

    Tomorrow, 19 January, Saturday

    Time Temperature Precipitation Wind Pressure Humidity
    00:00 -5°C° 0.1 mm 0 mps 689 mmHg 94%
    01:00 -5°C° 0.1 mm 0 mps 689 mmHg 94%
    02:00 -5°C° 0 mm 0 mps 689 mmHg 94%
    03:00 -6°C° 0 mm 0 mps 689 mmHg 94%
    04:00 -6°C° 0 mm 0 mps 688 mmHg 94%
    05:00 -6°C° 0 mm 0 mps 688 mmHg 94%
    06:00 -6°C° 0 mm 0 mps 688 mmHg 93%
    07:00 -6°C° 0 mm 1 mps 688 mmHg 93%
    08:00 -4°C° 0 mm 1 mps 688 mmHg 90%
    09:00 -3°C° 0 mm 1 mps 688 mmHg 88%
    10:00 -3°C° 0 mm 1 mps 688 mmHg 86%
    11:00 -2°C° 0 mm 1 mps 688 mmHg 85%
    12:00 -1°C° 0 mm 1 mps 688 mmHg 84%
    13:00 -1°C° 0 mm 1 mps 687 mmHg 83%
    14:00 -1°C° 0 mm 1 mps 687 mmHg 84%
    15:00 -1°C° 0 mm 1 mps 687 mmHg 86%
    16:00 -1°C° 0 mm 1 mps 686 mmHg 88%
    17:00 -2°C° 0.1 mm 1 mps 686 mmHg 89%
    18:00 -3°C° 0.1 mm 1 mps 686 mmHg 91%
    19:00 -3°C° 0.1 mm 1 mps 686 mmHg 93%
    20:00 -4°C° 0.1 mm 0 mps 686 mmHg 93%
    21:00 -4°C° 0.1 mm 0 mps 686 mmHg 93%
    22:00 -4°C° 0.1 mm 0 mps 686 mmHg 92%
    23:00 -5°C° 0 mm 0 mps 686 mmHg 92%

    Day after tomorrow, 20 January, Sunday

    Time Temperature Precipitation Wind Pressure Humidity
    00:00 -5°C° 0 mm 0 mps 686 mmHg 93%
    01:00 -5°C° 0 mm 0 mps 686 mmHg 93%
    02:00 -6°C° 0 mm 0 mps 685 mmHg 92%
    03:00 -6°C° 0 mm 0 mps 685 mmHg 92%
    04:00 -7°C° 0 mm 0 mps 685 mmHg 91%
    05:00 -7°C° 0 mm 0 mps 685 mmHg 91%
    06:00 -7°C° 0 mm 1 mps 685 mmHg 90%
    07:00 -7°C° 0 mm 1 mps 685 mmHg 89%
    08:00 -5°C° 0 mm 0 mps 686 mmHg 87%
    09:00 -4°C° 0 mm 0 mps 686 mmHg 84%
    10:00 -2°C° 0 mm 0 mps 686 mmHg 81%
    11:00 -1°C° 0 mm 0 mps 686 mmHg 80%
    12:00 0°C° 0 mm 0 mps 686 mmHg 79%
    13:00 +1°C° 0 mm 0 mps 686 mmHg 78%
    14:00 +1°C° 0 mm 0 mps 686 mmHg 81%
    15:00 0°C° 0 mm 0 mps 686 mmHg 83%
    16:00 -1°C° 0 mm 0 mps 686 mmHg 85%
    17:00 -2°C° 0 mm 0 mps 686 mmHg 88%
    18:00 -3°C° 0 mm 0 mps 687 mmHg 90%
    19:00 -5°C° 0 mm 0 mps 687 mmHg 92%
    20:00 -5°C° 0 mm 0 mps 687 mmHg 92%
    21:00 -5°C° 0 mm 0 mps 688 mmHg 92%
    22:00 -5°C° 0 mm 0 mps 688 mmHg 93%
    23:00 -5°C° 0 mm 0 mps 688 mmHg 93%

    21 January, Monday

    Time Temperature Precipitation Wind Pressure Humidity
    00:00 -5°C° 0 mm 0 mps 688 mmHg 93%
    01:00 -5°C° 0 mm 0 mps 689 mmHg 93%
    02:00 -5°C° 0 mm 0 mps 689 mmHg 93%
    03:00 -6°C° 0 mm 0 mps 688 mmHg 93%
    04:00 -6°C° 0 mm 0 mps 688 mmHg 93%
    05:00 -6°C° 0 mm 0 mps 689 mmHg 93%
    06:00 -6°C° 0 mm 1 mps 689 mmHg 93%
    07:00 -6°C° 0 mm 1 mps 689 mmHg 93%
    08:00 -4°C° 0 mm 1 mps 690 mmHg 90%
    09:00 -3°C° 0 mm 1 mps 690 mmHg 88%
    10:00 -2°C° 0 mm 1 mps 691 mmHg 85%
    11:00 -1°C° 0 mm 1 mps 690 mmHg 83%
    12:00 -1°C° 0 mm 1 mps 690 mmHg 81%
    13:00 0°C° 0 mm 1 mps 690 mmHg 79%
    14:00 0°C° 0 mm 1 mps 690 mmHg 81%
    15:00 -1°C° 0 mm 1 mps 690 mmHg 84%
    16:00 -1°C° 0 mm 1 mps 689 mmHg 86%
    17:00 -2°C° 0.1 mm 1 mps 689 mmHg 88%
    18:00 -2°C° 0.1 mm 1 mps 690 mmHg 91%
    19:00 -3°C° 0.1 mm 1 mps 690 mmHg 93%
    20:00 -3°C° 0.4 mm 1 mps 690 mmHg 93%
    21:00 -3°C° 0.4 mm 1 mps 690 mmHg 93%
    22:00 -3°C° 0.4 mm 1 mps 690 mmHg 93%
    23:00 -3°C° 0.5 mm 1 mps 689 mmHg 93%

    22 January, Tuesday

    Time Temperature Precipitation Wind Pressure Humidity
    00:00 -3°C° 0.5 mm 1 mps 688 mmHg 93%
    01:00 -3°C° 0.5 mm 1 mps 688 mmHg 93%
    02:00 -4°C° 0.3 mm 1 mps 687 mmHg 92%
    03:00 -4°C° 0.3 mm 1 mps 687 mmHg 92%
    04:00 -4°C° 0.3 mm 1 mps 686 mmHg 92%
    05:00 -4°C° 0.2 mm 1 mps 685 mmHg 91%
    06:00 -4°C° 0.2 mm 1 mps 685 mmHg 91%
    07:00 -6°C° 0.2 mm 1 mps 684 mmHg 91%
    08:00 -4°C° 0.2 mm 1 mps 684 mmHg 89%
    09:00 -3°C° 0.2 mm 1 mps 683 mmHg 87%
    10:00 -3°C° 0.2 mm 1 mps 683 mmHg 85%
    11:00 -2°C° 0.2 mm 1 mps 682 mmHg 84%
    12:00 -1°C° 0.2 mm 1 mps 681 mmHg 83%
    13:00 -1°C° 0.2 mm 1 mps 680 mmHg 82%
    14:00 -1°C° 0.4 mm 1 mps 679 mmHg 85%
    15:00 -1°C° 0.4 mm 1 mps 678 mmHg 87%
    16:00 -2°C° 0.4 mm 1 mps 678 mmHg 90%
    17:00 -2°C° 0.3 mm 1 mps 677 mmHg 91%
    18:00 -2°C° 0.3 mm 1 mps 676 mmHg 92%
    19:00 -3°C° 0.3 mm 1 mps 676 mmHg 93%
    20:00 -3°C° 0.1 mm 1 mps 675 mmHg 93%
    21:00 -3°C° 0.1 mm 1 mps 675 mmHg 93%
    22:00 -5°C° 0.1 mm 0 mps 674 mmHg 93%
    23:00 -4°C° 0.1 mm 0 mps 674 mmHg 92%

    23 January, Wednesday

    Time Temperature Precipitation Wind Pressure Humidity
    00:00 -4°C° 0.1 mm 0 mps 674 mmHg 92%
    01:00 -4°C° 0.1 mm 0 mps 673 mmHg 92%
    02:00 -4°C° 0.1 mm 0 mps 673 mmHg 91%
    03:00 -5°C° 0.1 mm 0 mps 672 mmHg 91%
    04:00 -5°C° 0.1 mm 0 mps 672 mmHg 91%
    05:00 -5°C° 0.2 mm 0 mps 672 mmHg 91%
    06:00 -4°C° 0.2 mm 0 mps 672 mmHg 91%
    07:00 -4°C° 0.2 mm 0 mps 672 mmHg 91%
    08:00 -3°C° 0.3 mm 0 mps 672 mmHg 90%
    09:00 -3°C° 0.3 mm 0 mps 672 mmHg 89%
    10:00 -1°C° 0.3 mm 1 mps 672 mmHg 87%
    11:00 0°C° 0.1 mm 1 mps 671 mmHg 86%
    12:00 0°C° 0.1 mm 1 mps 670 mmHg 86%
    13:00 -1°C° 0.1 mm 2 mps 670 mmHg 85%
    14:00 -1°C° 0.2 mm 2 mps 669 mmHg 86%
    15:00 -2°C° 0.2 mm 2 mps 669 mmHg 88%
    16:00 -2°C° 0.2 mm 2 mps 668 mmHg 89%
    17:00 -2°C° 1.9 mm 2 mps 668 mmHg 92%
    18:00 -1°C° 1.9 mm 1 mps 668 mmHg 94%
    19:00 -1°C° 1.9 mm 1 mps 668 mmHg 97%
    20:00 -2°C° 0.5 mm 1 mps 668 mmHg 96%
    21:00 -2°C° 0.5 mm 1 mps 668 mmHg 96%
    22:00 -2°C° 0.5 mm 1 mps 668 mmHg 96%
    23:00 -3°C° 0 mm 1 mps 668 mmHg 96%
    Show more